• Em Portugal
  • Lista de países
  • Para 7 dias
  • Temperatura da água
  • Mapas de satélite
  • Mapa do tempo
  • Widgets de tempo
  • user-avatar
    Iniciar Sessão

    Previsão horária em Malatya

    Hoje, 20 Setembro, Quinta-feira

    Tempo Temperatura Precipitação Vento Pressão Humidade
    00:00 +21°C° 0 mm 2 m/s 672 mmHg 31%
    01:00 +21°C° 0 mm 2 m/s 672 mmHg 33%
    02:00 +20°C° 0 mm 2 m/s 672 mmHg 35%
    03:00 +19°C° 0 mm 2 m/s 672 mmHg 37%
    04:00 +19°C° 0 mm 2 m/s 671 mmHg 39%
    05:00 +18°C° 0 mm 2 m/s 671 mmHg 41%
    06:00 +18°C° 0 mm 2 m/s 671 mmHg 43%
    07:00 +19°C° 0 mm 2 m/s 672 mmHg 40%
    08:00 +21°C° 0 mm 2 m/s 672 mmHg 37%
    09:00 +23°C° 0 mm 2 m/s 672 mmHg 33%
    10:00 +25°C° 0 mm 2 m/s 673 mmHg 30%
    11:00 +26°C° 0 mm 1 m/s 673 mmHg 26%
    12:00 +27°C° 0 mm 1 m/s 673 mmHg 22%
    13:00 +28°C° 0 mm 1 m/s 672 mmHg 21%
    14:00 +29°C° 0 mm 1 m/s 672 mmHg 19%
    15:00 +30°C° 0 mm 1 m/s 672 mmHg 17%
    16:00 +29°C° 0 mm 1 m/s 672 mmHg 18%
    17:00 +29°C° 0 mm 1 m/s 672 mmHg 19%
    18:00 +28°C° 0 mm 1 m/s 671 mmHg 20%
    19:00 +27°C° 0 mm 1 m/s 671 mmHg 22%
    20:00 +26°C° 0 mm 1 m/s 671 mmHg 24%
    21:00 +22°C° 0 mm 0 m/s 671 mmHg 26%
    22:00 +22°C° 0 mm 0 m/s 671 mmHg 27%
    23:00 +23°C° 0 mm 1 m/s 671 mmHg 27%

    Amanhã, 21 Setembro, Sexta-feira

    Tempo Temperatura Precipitação Vento Pressão Humidade
    00:00 +22°C° 0 mm 1 m/s 671 mmHg 28%
    01:00 +22°C° 0 mm 1 m/s 671 mmHg 28%
    02:00 +22°C° 0 mm 1 m/s 671 mmHg 28%
    03:00 +21°C° 0 mm 1 m/s 671 mmHg 29%
    04:00 +21°C° 0 mm 1 m/s 671 mmHg 29%
    05:00 +20°C° 0 mm 1 m/s 670 mmHg 30%
    06:00 +20°C° 0 mm 1 m/s 670 mmHg 30%
    07:00 +22°C° 0 mm 1 m/s 671 mmHg 27%
    08:00 +23°C° 0 mm 1 m/s 672 mmHg 25%
    09:00 +25°C° 0 mm 1 m/s 672 mmHg 22%
    10:00 +26°C° 0 mm 1 m/s 672 mmHg 21%
    11:00 +28°C° 0 mm 2 m/s 673 mmHg 21%
    12:00 +29°C° 0 mm 2 m/s 673 mmHg 20%
    13:00 +29°C° 0 mm 2 m/s 672 mmHg 20%
    14:00 +30°C° 0 mm 2 m/s 672 mmHg 20%
    15:00 +30°C° 0 mm 3 m/s 672 mmHg 20%
    16:00 +29°C° 0 mm 2 m/s 672 mmHg 22%
    17:00 +29°C° 0 mm 2 m/s 671 mmHg 23%
    18:00 +28°C° 0 mm 2 m/s 671 mmHg 25%
    19:00 +27°C° 0.2 mm 1 m/s 671 mmHg 28%
    20:00 +26°C° 0.2 mm 1 m/s 672 mmHg 32%
    21:00 +25°C° 0.2 mm 1 m/s 672 mmHg 35%
    22:00 +24°C° 0.1 mm 1 m/s 672 mmHg 37%
    23:00 +23°C° 0.1 mm 1 m/s 672 mmHg 38%

    Depois de amanhã, 22 Setembro, Sábado

    Tempo Temperatura Precipitação Vento Pressão Humidade
    00:00 +23°C° 0.1 mm 1 m/s 672 mmHg 40%
    01:00 +22°C° 0.1 mm 1 m/s 672 mmHg 41%
    02:00 +22°C° 0.1 mm 1 m/s 672 mmHg 43%
    03:00 +20°C° 0.1 mm 2 m/s 671 mmHg 45%
    04:00 +20°C° 0 mm 2 m/s 671 mmHg 46%
    05:00 +19°C° 0 mm 2 m/s 671 mmHg 48%
    06:00 +19°C° 0 mm 2 m/s 671 mmHg 49%
    07:00 +20°C° 0 mm 2 m/s 672 mmHg 45%
    08:00 +23°C° 0 mm 2 m/s 672 mmHg 41%
    09:00 +24°C° 0 mm 2 m/s 673 mmHg 37%
    10:00 +25°C° 0 mm 1 m/s 673 mmHg 33%
    11:00 +26°C° 0 mm 1 m/s 673 mmHg 30%
    12:00 +28°C° 0 mm 1 m/s 673 mmHg 27%
    13:00 +28°C° 0 mm 1 m/s 673 mmHg 25%
    14:00 +29°C° 0 mm 1 m/s 672 mmHg 23%
    15:00 +29°C° 0 mm 1 m/s 672 mmHg 22%
    16:00 +29°C° 0 mm 1 m/s 672 mmHg 22%
    17:00 +29°C° 0 mm 1 m/s 672 mmHg 23%
    18:00 +28°C° 0 mm 1 m/s 672 mmHg 23%
    19:00 +27°C° 0 mm 1 m/s 672 mmHg 25%
    20:00 +26°C° 0 mm 1 m/s 672 mmHg 27%
    21:00 +25°C° 0 mm 1 m/s 672 mmHg 28%
    22:00 +24°C° 0 mm 1 m/s 672 mmHg 28%
    23:00 +24°C° 0 mm 1 m/s 672 mmHg 28%

    23 Setembro, Domingo

    Tempo Temperatura Precipitação Vento Pressão Humidade
    00:00 +23°C° 0 mm 2 m/s 672 mmHg 27%
    01:00 +23°C° 0 mm 2 m/s 672 mmHg 28%
    02:00 +21°C° 0 mm 2 m/s 672 mmHg 29%
    03:00 +21°C° 0 mm 2 m/s 672 mmHg 29%
    04:00 +20°C° 0 mm 2 m/s 672 mmHg 31%
    05:00 +20°C° 0 mm 2 m/s 672 mmHg 32%
    06:00 +19°C° 0 mm 2 m/s 672 mmHg 34%
    07:00 +20°C° 0 mm 2 m/s 672 mmHg 32%
    08:00 +23°C° 0 mm 2 m/s 673 mmHg 30%
    09:00 +24°C° 0 mm 3 m/s 673 mmHg 28%
    10:00 +25°C° 0 mm 3 m/s 673 mmHg 26%
    11:00 +26°C° 0 mm 3 m/s 673 mmHg 23%
    12:00 +28°C° 0 mm 3 m/s 673 mmHg 21%
    13:00 +28°C° 0 mm 3 m/s 673 mmHg 20%
    14:00 +29°C° 0 mm 4 m/s 673 mmHg 18%
    15:00 +29°C° 0 mm 4 m/s 673 mmHg 17%
    16:00 +29°C° 0 mm 4 m/s 673 mmHg 18%
    17:00 +28°C° 0 mm 4 m/s 673 mmHg 18%
    18:00 +27°C° 0 mm 4 m/s 673 mmHg 19%
    19:00 +26°C° 0 mm 4 m/s 673 mmHg 21%
    20:00 +25°C° 0 mm 4 m/s 673 mmHg 23%
    21:00 +23°C° 0 mm 4 m/s 673 mmHg 25%
    22:00 +22°C° 0 mm 3 m/s 673 mmHg 28%
    23:00 +21°C° 0 mm 3 m/s 673 mmHg 30%

    24 Setembro, Segunda-feira

    Tempo Temperatura Precipitação Vento Pressão Humidade
    00:00 +20°C° 0 mm 3 m/s 673 mmHg 32%
    01:00 +19°C° 0 mm 3 m/s 673 mmHg 34%
    02:00 +19°C° 0 mm 3 m/s 673 mmHg 37%
    03:00 +18°C° 0 mm 3 m/s 672 mmHg 39%
    04:00 +18°C° 0 mm 3 m/s 672 mmHg 40%
    05:00 +17°C° 0 mm 3 m/s 672 mmHg 42%
    06:00 +17°C° 0 mm 2 m/s 672 mmHg 43%
    07:00 +18°C° 0 mm 2 m/s 673 mmHg 40%
    08:00 +19°C° 0 mm 2 m/s 673 mmHg 36%
    09:00 +21°C° 0 mm 2 m/s 673 mmHg 33%
    10:00 +23°C° 0 mm 2 m/s 673 mmHg 28%
    11:00 +25°C° 0 mm 2 m/s 673 mmHg 24%
    12:00 +26°C° 0 mm 1 m/s 673 mmHg 20%
    13:00 +27°C° 0 mm 1 m/s 673 mmHg 18%
    14:00 +28°C° 0 mm 1 m/s 672 mmHg 16%
    15:00 +29°C° 0 mm 1 m/s 672 mmHg 15%
    16:00 +28°C° 0 mm 1 m/s 672 mmHg 16%
    17:00 +28°C° 0 mm 1 m/s 672 mmHg 18%
    18:00 +27°C° 0 mm 1 m/s 672 mmHg 20%
    19:00 +26°C° 0 mm 1 m/s 671 mmHg 21%
    20:00 +22°C° 0 mm 0 m/s 671 mmHg 23%
    21:00 +21°C° 0 mm 0 m/s 671 mmHg 24%
    22:00 +20°C° 0 mm 0 m/s 671 mmHg 25%
    23:00 +20°C° 0 mm 0 m/s 671 mmHg 25%

    25 Setembro, Terça-feira

    Tempo Temperatura Precipitação Vento Pressão Humidade
    00:00 +19°C° 0 mm 0 m/s 671 mmHg 26%
    01:00 +19°C° 0 mm 0 m/s 671 mmHg 26%
    02:00 +18°C° 0 mm 0 m/s 670 mmHg 26%
    03:00 +18°C° 0 mm 0 m/s 670 mmHg 26%
    04:00 +17°C° 0 mm 0 m/s 670 mmHg 26%
    05:00 +17°C° 0 mm 0 m/s 670 mmHg 27%
    06:00 +17°C° 0 mm 0 m/s 670 mmHg 27%
    07:00 +19°C° 0 mm 0 m/s 671 mmHg 23%
    08:00 +21°C° 0 mm 0 m/s 671 mmHg 20%
    09:00 +24°C° 0 mm 0 m/s 672 mmHg 16%
    10:00 +27°C° 0 mm 1 m/s 672 mmHg 15%
    11:00 +28°C° 0 mm 1 m/s 672 mmHg 14%
    12:00 +29°C° 0 mm 2 m/s 672 mmHg 12%
    13:00 +30°C° 0 mm 2 m/s 672 mmHg 12%
    14:00 +30°C° 0 mm 2 m/s 671 mmHg 11%
    15:00 +31°C° 0 mm 2 m/s 671 mmHg 10%
    16:00 +30°C° 0 mm 2 m/s 671 mmHg 12%
    17:00 +29°C° 0 mm 2 m/s 670 mmHg 13%
    18:00 +28°C° 0 mm 2 m/s 670 mmHg 14%
    19:00 +27°C° 0 mm 1 m/s 670 mmHg 16%
    20:00 +25°C° 0 mm 1 m/s 670 mmHg 17%
    21:00 +24°C° 0 mm 1 m/s 670 mmHg 18%
    22:00 +23°C° 0 mm 1 m/s 670 mmHg 19%
    23:00 +22°C° 0 mm 1 m/s 669 mmHg 19%
    Mostrar mais